Home   Weather   Panama City   Past weeks
Flag for USA

Past Weather in Panama City, Florida, USA — Yesterday and Last 2 Weeks

Now
81 °F

Sunny.


Feels Like: 87 °F
Forecast: 82 / 73 °F
Wind: 7 mph from Southeast

Location: Tyndall Air Force Base

Current Time: Oct 15, 2019 at 1:56:13 pm

Latest Report: Oct 15, 2019 at 12:56 pm


Visibility: 10 mi

Pressure: 29.98 "Hg

Humidity: 82%

Dew Point: 75 °F

Location of Panama CityLocation

Past Weather in Panama City — Graph

°F

Panama City Temperature Yesterday

Maximum temperature yesterday: 85 °F (at 11:56 am)
Minimum temperature yesterday: 72 °F (at 6:56 am)
Average temperature yesterday: 78 °F

High & Low Weather Summary for the Past Weeks

 TemperatureHumidityPressure
High94 °F (Oct 1, 2:56 pm)95% (Oct 3, 7:56 am)30.09 "Hg (Oct 3, 7:56 am)
Low66 °F (Oct 12, 12:56 am)39% (Oct 8, 3:56 pm)29.88 "Hg (Oct 7, 4:56 pm)
Average79 °F74%30.00 "Hg
* Reported Sep 30 12:56 pm — Oct 15 12:36 pm, Panama City. Weather by CustomWeather, © 2019

Note: Actual official high and low records may vary slightly from our data, if they occured in-between our weather recording intervals... More about our weather records

Advertising

Panama City Weather History for the Previous 24 Hours

Scroll right to see more
 ConditionsComfort  
Time TempWeatherWind HumidityBarometerVisibility
12:36 pm
Tue, Oct 15
79 °FPassing clouds.12 mph89%29.99 "Hg10 mi
12:06 pm77 °FBroken clouds.13 mph89%30.01 "Hg10 mi
11:16 am79 °FSunny.6 mph89%30.02 "Hg10 mi
10:43 am77 °FPartly sunny.5 mph89%30.03 "Hg10 mi
10:21 am79 °FPartly sunny.7 mph79%30.03 "Hg10 mi
10:07 am79 °FPartly sunny.5 mph79%30.03 "Hg10 mi
9:56 am79 °FLight rain. Partly sunny.6 mph79%30.03 "Hg5 mi
8:56 am79 °FPartly sunny.8 mph83%30.03 "Hg10 mi
7:56 am74 °FBroken clouds.5 mph92%30.03 "Hg10 mi
6:56 am73 °FSunny.3 mph93%30.03 "Hg10 mi
5:56 am73 °FSunny.5 mph92%30.04 "Hg10 mi
4:56 am74 °FClear.5 mph91%30.03 "Hg10 mi
3:56 am74 °FClear.5 mph92%30.02 "Hg10 mi
2:56 am75 °FClear.No wind92%30.03 "Hg10 mi
1:56 am74 °FClear.5 mph92%30.04 "Hg10 mi
12:56 am74 °FClear.No wind91%30.05 "Hg10 mi
11:56 pm
Mon, Oct 14
74 °FClear.No wind90%30.06 "Hg10 mi
10:56 pm75 °FClear.6 mph89%30.08 "Hg10 mi
9:56 pm75 °FClear.5 mph85%30.08 "Hg10 mi
8:56 pm76 °FClear.6 mph85%30.08 "Hg10 mi
7:56 pm77 °FPassing clouds.6 mph78%30.06 "Hg10 mi
6:56 pm80 °FClear.3 mph70%30.05 "Hg10 mi
5:56 pm81 °FClear.6 mph65%30.03 "Hg10 mi
4:56 pm82 °FSunny.7 mph64%30.02 "Hg10 mi
3:56 pm85 °FSunny.10 mph62%30.01 "Hg10 mi
2:56 pm85 °FSunny.10 mph63%30.01 "Hg10 mi
1:56 pm85 °FSunny.9 mph64%30.02 "Hg10 mi
Weather by CustomWeather, © 2019

See weather overview